AO-07 1 07530U 74089B 24032.76821396 -.00000020 00000-0 16508-3 0 9992 2 07530 101.9710 26.1784 0012117 346.0389 64.6566 12.53671690252180 UO-11 1 14781U 84021B 24032.42901266 .00001626 00000-0 19205-3 0 9992 2 14781 97.6884 6.0243 0008608 156.9155 203.2449 14.85971513128171 AO-16 1 20439U 90005D 24032.46131458 .00000254 00000-0 10935-3 0 9997 2 20439 98.8983 33.7746 0009742 250.7018 272.2105 14.33269045777748 LO-19 1 20442U 90005G 24032.83529268 .00000280 00000-0 11834-3 0 9990 2 20442 98.8716 19.6046 0010963 221.6570 138.3780 14.33426635778303 AO-27 1 22825U 93061C 24032.09125085 .00000145 00000-0 73293-4 0 9997 2 22825 98.8106 83.3079 0009387 116.9305 243.2837 14.30419274583016 IO-26 1 22826U 93061D 24032.10594572 .00000172 00000-0 83150-4 0 9994 2 22826 98.8051 83.1842 0010029 103.9758 256.2539 14.30792561583291 FO-29 1 24278U 96046B 24032.55357472 .00000003 00000-0 38153-4 0 9994 2 24278 98.5652 345.2199 0350120 182.0395 177.9337 13.53171224355955 NOAA-15 1 25338U 98030A 24032.81499740 .00000223 00000-0 11066-3 0 9998 2 25338 98.5847 62.6952 0010390 9.3500 350.7872 14.26484011337998 GO-32 1 25397U 98043D 24032.50475668 .00000155 00000-0 87684-4 0 9990 2 25397 98.9033 357.3311 0001420 149.1220 211.0042 14.23978572327964 ISS 1 25544U 98067A 24032.81361468 .00013020 00000-0 24049-3 0 9996 2 25544 51.6417 271.1307 0002430 186.2658 295.6401 15.49426527437402 NO-44 1 26931U 01043C 24032.79433810 .00000303 00000-0 14616-3 0 9992 2 26931 67.0527 323.8783 0005177 270.1400 89.9108 14.31111219166594 SO-50 1 27607U 02058C 24032.03872121 .00001467 00000-0 21816-3 0 9991 2 27607 64.5545 282.8573 0041401 169.3548 190.8443 14.78263050136043 CO-55 1 27844U 03031E 24032.83804481 .00000488 00000-0 23571-3 0 9990 2 27844 98.6794 41.7742 0009842 174.1385 185.9910 14.23060042 68422 CO-57 1 27848U 03031J 24032.86072513 .00000406 00000-0 20155-3 0 9995 2 27848 98.6828 42.1131 0009452 189.6447 170.4551 14.22531168 68205 RS-22 1 27939U 03042A 24032.84287605 .00001734 00000-0 30216-3 0 9990 2 27939 98.2694 187.1093 0013071 128.0533 322.0887 14.69286804 88254 NOAA-18 1 28654U 05018A 24032.84272670 .00000251 00000-0 15788-3 0 9996 2 28654 98.8874 110.8936 0015208 90.6273 269.6641 14.13113296964006 CO-58 1 28895U 05043F 24032.30499538 .00002055 00000-0 37636-3 0 9996 2 28895 98.1792 168.2141 0017037 71.3836 288.9216 14.66816360974387 CO-65 1 32785U 08021C 24032.87915674 .00004504 00000-0 41907-3 0 9991 2 32785 97.7384 359.7030 0013223 63.6001 296.6575 14.94751629855173 AAUSAT2 1 32788U 08021F 24032.49614063 .00015044 00000-0 90817-3 0 9995 2 32788 97.5843 13.1632 0004277 300.6478 59.4330 15.10803235857642 CO-66 1 32791U 08021J 24032.44696805 .00007561 00000-0 60297-3 0 9992 2 32791 97.6812 4.8366 0008902 32.2141 327.9625 15.00572847855995 RS-30 1 32953U 08025A 24032.81777175 .00000039 00000-0 21080-3 0 9997 2 32953 82.5049 174.2886 0019518 45.4099 314.8570 12.43134976712180 PRISM 1 33493U 09002B 24032.08870562 .00014157 00000-0 80432-3 0 9998 2 33493 98.2271 68.5157 0013946 2.3674 357.7618 15.12956849818273 NOAA-19 1 33591U 09005A 24032.84607633 .00000231 00000-0 14841-3 0 9990 2 33591 99.0687 87.0893 0013158 319.4322 40.5867 14.12917976772372 SRMSAT 1 37841U 11058D 24032.01645640 .00000511 00000-0 13539-3 0 9996 2 37841 19.9714 266.3741 0011793 27.1246 111.9655 14.11027280635163 HRBE 1 37855U 11061F 24032.84585990 .00053137 00000-0 97128-3 0 9995 2 37855 101.6859 132.8674 0080050 46.5291 314.2562 15.45664922672250 RS-40 1 38735U 12041C 24032.54344355 .00000019 00000-0 64256-4 0 9995 2 38735 82.4723 255.0673 0017461 154.5588 205.6355 12.42602412522208 ZACUBE-1 1 39417U 13066B 24032.43471666 .00004743 00000-0 51865-3 0 9994 2 39417 97.7177 351.8209 0050682 251.8398 107.7296 14.87369473551240 Delfi-N3xt 1 39428U 13066N 24032.34444884 .00004257 00000-0 57572-3 0 9999 2 39428 97.8391 314.5613 0105111 170.5146 189.8082 14.75723421545894 GOMX-1 1 39430U 13066Q 24032.87166922 .00003094 00000-0 52863-3 0 9990 2 39430 97.7524 275.4391 0141751 326.3469 32.8792 14.63174675543106 LO-74 1 39440U 13066AA 24032.70140444 .00005222 00000-0 64118-3 0 9995 2 39440 97.7999 339.6178 0072364 1.2653 358.8729 14.81625302549314 AO-73 1 39444U 13066AE 24032.83250542 .00006082 00000-0 62718-3 0 9993 2 39444 97.7033 355.0413 0048658 232.4984 127.1806 14.89694248550380 SPROUT 1 39770U 14029E 24032.83273222 .00040879 00000-0 19594-2 0 9990 2 39770 98.0024 174.7327 0006429 272.8022 87.2475 15.18775069526797 DTUSAT-2 1 40030U 14033W 24032.34213962 .00006347 00000-0 57058-3 0 9997 2 40030 97.9939 341.5701 0008144 247.0888 112.9473 14.96010787522223 EO-80 1 40032U 14033Y 24032.58256202 .00005943 00000-0 53413-3 0 9991 2 40032 97.9919 341.8296 0008681 247.8607 112.1692 14.96047726522754 HODOYOSHI-1 1 40299U 14070B 24032.79312179 .00016872 00000-0 40915-3 0 9992 2 40299 97.1620 95.1402 0009092 162.3897 197.7667 15.41079756514073 GRIFEX 1 40379U 15003D 24032.75041348 .00362954 51095-4 12564-2 0 9998 2 40379 99.0807 36.6452 0029655 172.1963 187.9771 15.88698641499097 XW-2C 1 40906U 15049H 24032.83928952 .00019495 00000-0 58428-3 0 9993 2 40906 97.4896 46.9162 0011987 73.5878 286.6681 15.34467164463513 XW-2D 1 40907U 15049J 24032.82678190 .00026099 00000-0 68558-3 0 9992 2 40907 97.4857 48.3477 0010644 66.7211 293.5153 15.38538571463662 LILACSAT-2 1 40908U 15049K 24032.82779334 .00007800 00000-0 33032-3 0 9993 2 40908 97.5285 40.8436 0014930 106.2405 254.0476 15.23348425462714 XW-2E 1 40909U 15049L 24032.86671881 .00147519 00000-0 12608-2 0 9993 2 40909 97.4292 59.1653 0004558 38.5396 321.6191 15.69009896464710 XW-2F 1 40910U 15049M 24032.86886309 .00137479 00000-0 12564-2 0 9993 2 40910 97.4398 58.3953 0005274 38.6100 321.5537 15.67386283464431 XW-2B 1 40911U 15049N 24032.80294162 .00026077 00000-0 69447-3 0 9992 2 40911 97.4833 48.5847 0010696 67.8795 292.3584 15.38114231463534 IO-86 1 40931U 15052B 24006.28856983 .00001263 00000-0 84248-4 0 9993 2 40931 6.0004 76.3799 0013541 291.8204 68.0484 14.77555377447321 ChubuSat-2 1 41338U 16012B 24032.60359219 .00005162 00000-0 33550-3 0 9998 2 41338 31.0005 188.5709 0011791 309.1387 50.8202 15.06404116436972 ChubuSat-3 1 41339U 16012C 24032.83500333 .00004702 00000-0 30820-3 0 9995 2 41339 31.0070 184.8649 0011818 317.7382 42.2344 15.06031035436997 Horyu-4 1 41340U 16012D 24032.57088740 .00009878 00000-0 54737-3 0 9993 2 41340 31.0025 143.1816 0010763 31.1139 329.0136 15.12472543437422 e-st@r-II 1 41459U 16025D 24032.72074703 .00090505 00000-0 12240-2 0 9998 2 41459 98.1502 265.6278 0064094 9.4258 350.8180 15.54964716428228 Lapan A3 1 41603U 16040E 24032.85723678 .00003686 00000-0 15471-3 0 9996 2 41603 97.1519 52.8054 0011027 217.9072 142.1391 15.24013462422457 Pratham 1 41783U 16059A 24032.02200876 .00000960 00000-0 18842-3 0 9991 2 41783 97.8491 57.7542 0034141 95.5777 264.9322 14.64477938392461 CAS-2T 1 41847U 16066G 24032.58375973 .00002126 00000-0 32229-3 0 9993 2 41847 98.4768 104.8673 0355616 228.3697 128.6529 14.40624311379828 CAS-4B 1 42759U 17034B 24032.79463923 .00011919 00000-0 50486-3 0 9993 2 42759 43.0123 274.2739 0011050 169.0948 191.0144 15.23080314366574 CAS-4A 1 42761U 17034D 24032.80616130 .00012119 00000-0 51182-3 0 9995 2 42761 43.0132 272.6647 0011565 172.3832 187.7196 15.23163826366587 NIUSat 1 42766U 17036B 24032.05997181 .00088196 00000-0 95374-3 0 9996 2 42766 97.1249 65.8770 0004612 5.4264 354.7044 15.63305003368039 Aalto 1 1 42775U 17036L 24032.57991714 .00036050 00000-0 67003-3 0 9999 2 42775 97.1269 62.5341 0007163 9.4204 350.7181 15.48793006367855 URSA MAIOR 1 42776U 17036M 24032.81272422 .00053634 00000-0 81561-3 0 9997 2 42776 97.1262 65.2027 0005533 0.3075 359.8182 15.54362625368033 Max Valier Sat 1 42778U 17036P 24032.08734745 .00046808 00000-0 67881-3 0 9993 2 42778 97.1272 68.4851 0004969 5.4350 354.6959 15.55697634368093 D-SAT 1 42794U 17036AF 24032.47911390 .00004640 00000-0 34722-3 0 9993 2 42794 97.4834 19.5210 0109851 249.1296 109.8138 14.98480579360237 TechnoSat 1 42829U 17042E 24032.52592151 .00003800 00000-0 34943-3 0 9997 2 42829 97.3795 221.3960 0012931 168.4063 191.7459 14.95265533356748 AO-91 1 43017U 17073E 24032.15196395 .00008842 00000-0 57560-3 0 9991 2 43017 97.5995 272.6294 0221329 31.0422 330.3659 14.90170522335230 AO-92 1 43137U 18004AC 24032.10758869 .02851561 23693-5 11448-2 0 9992 2 43137 97.2771 124.3413 0008137 296.5237 63.5219 16.23517918338074 TianYi 2 1 43155U 18008A 24032.84039634 .00036914 00000-0 93514-3 0 9991 2 43155 97.2635 86.3682 0008742 203.6798 156.4047 15.39597090333803 Zhou Enlai 1 43156U 18008B 24032.83848081 .00045753 00000-0 10542-2 0 9995 2 43156 97.2677 87.1024 0006711 203.4304 156.6639 15.42439281333769 TianYi 6 1 43158U 18008D 24032.55806215 .00027990 00000-0 84670-3 0 9996 2 43158 97.2752 82.1232 0007512 212.1062 147.9725 15.34140004333446 S-Net D 1 43186U 18014G 24032.29778710 .00003683 00000-0 27983-3 0 9990 2 43186 97.6004 296.6461 0012039 106.1580 254.0972 15.02723664327939 S-Net B 1 43187U 18014H 24032.29949472 .00003526 00000-0 26806-3 0 9995 2 43187 97.6013 296.5873 0013141 102.1352 258.1346 15.02720513327934 S-Net A 1 43188U 18014J 24032.29903091 .00003588 00000-0 27262-3 0 9998 2 43188 97.6017 296.6891 0012924 102.7841 257.4830 15.02725921327935 S-Net C 1 43189U 18014K 24032.30183916 .00003422 00000-0 26005-3 0 9998 2 43189 97.6042 296.6117 0015156 96.6418 263.6533 15.02725837326480 CubeBel-1 1 43666U 18083E 24032.65054353 .00242996 00000-0 15535-2 0 9990 2 43666 97.3426 74.5616 0003496 10.8793 349.2547 15.75636907292766 Changshagaoxin 1 43669U 18083H 24032.81562129 .00082131 00000-0 11382-2 0 9995 2 43669 97.3524 66.8124 0004621 39.4165 320.7426 15.56789076292368 Ten-Koh 1 43677U 18084G 24032.36801486 .00003761 00000-0 35123-3 0 9999 2 43677 98.0408 182.1939 0015739 108.5272 251.7659 14.94723025286278 PO-101 1 43678U 18084H 24032.85982904 .00001737 00000-0 16641-3 0 9994 2 43678 98.0504 187.0973 0010348 117.9297 242.2972 14.94496637286550 QO-100 1 43700U 18090A 24032.55188189 .00000162 00000-0 00000-0 0 9997 2 43700 0.0167 92.0275 0001041 231.4580 32.2588 1.00276160 18981 MinXSS-2 1 43758U 18099A 24032.14196920 .00007612 00000-0 52948-3 0 9994 2 43758 97.5732 96.8413 0019105 67.8756 292.4496 15.05621806282145 AO-95 1 43770U 18099N 24032.15629073 .00006231 00000-0 46382-3 0 9990 2 43770 97.5684 93.0691 0016723 106.4501 253.8564 15.03181531281963 RANGE-B 1 43772U 18099Q 24032.15875851 .00008915 00000-0 61435-3 0 9996 2 43772 97.5448 96.2168 0006421 34.3656 325.7986 15.06053406282073 RANGE-A 1 43773U 18099R 24032.08719597 .00004321 00000-0 34483-3 0 9993 2 43773 97.5270 89.7216 0019326 76.8770 283.4610 15.00654389281865 MOVE-II 1 43780U 18099Y 24032.63220066 .00013321 00000-0 81910-3 0 9997 2 43780 97.5417 97.3875 0008983 89.0730 271.1528 15.10135372282287 SNUSat 2 1 43782U 18099AA 24032.63877821 .00005880 00000-0 44479-3 0 9996 2 43782 97.5362 93.3969 0016130 49.9530 310.3107 15.02598420282056 SnugLite 1 43784U 18099AC 24032.15093289 .00006241 00000-0 46201-3 0 9990 2 43784 97.5176 92.3776 0006790 68.8318 291.3633 15.03478027282032 ITASat 1 1 43786U 18099AE 24032.39337149 .00005023 00000-0 38535-3 0 9992 2 43786 97.5270 93.6061 0018646 93.7681 266.5677 15.02100080282024 EAGLET 1 1 43790U 18099AJ 24032.40069062 .00003256 00000-0 25763-3 0 9990 2 43790 97.5431 94.0569 0017667 87.3600 272.9647 15.01176792281746 ESEO 1 43792U 18099AL 24032.11379658 .00003003 00000-0 25338-3 0 9993 2 43792 97.5398 91.3682 0014720 76.4141 283.8720 14.98792899281663 CSIM 1 43793U 18099AM 24032.15292529 .00011355 00000-0 69677-3 0 9992 2 43793 97.5484 98.5181 0015302 66.6686 293.6152 15.10185250282060 JO-97 1 43803U 18099AX 24032.41120411 .00005612 00000-0 40534-3 0 9993 2 43803 97.5412 94.3034 0011928 54.9168 305.3175 15.04414486282110 Suomi 100 1 43804U 18099AY 24032.40451026 .00004872 00000-0 35697-3 0 9993 2 43804 97.5474 94.1015 0017921 51.1469 309.1353 15.03870168282109 CHOMPTT 1 43855U 18104G 24032.70388212 .00082824 00000-0 93845-3 0 9997 2 43855 85.0215 7.7940 0009876 132.1986 228.0117 15.62054062286104 ISAT 1 43879U 18111D 24032.30404840 .00007565 00000-0 51134-3 0 9997 2 43879 97.6297 298.9872 0015615 103.6122 256.6845 15.06746378278786 UWE-4 1 43880U 18111E 24032.28870292 .00007951 00000-0 54480-3 0 9990 2 43880 97.6214 299.2958 0018976 112.5206 247.8032 15.06176425278804 Sparrow 1 43881U 18111F 24032.31783495 .00007444 00000-0 49786-3 0 9993 2 43881 97.6376 300.6639 0011696 138.8827 221.3284 15.07190585278843 Lume 1 1 43908U 18111AJ 24032.24440535 .00533839 12390-3 11513-2 0 9996 2 43908 97.0928 281.5747 0007565 84.6603 275.5538 15.98409437285139 AISTechSat 3 1 44103U 19018AB 24032.79443398 .00101535 00000-0 96458-3 0 9999 2 44103 97.2122 97.4286 0004521 146.6929 213.4617 15.66541443270093 AISat 1 1 44104U 19018AC 24032.52393619 .00056326 00000-0 58758-3 0 9999 2 44104 97.3654 135.4256 0026679 132.7312 227.6199 15.63892114271336 Prox-1 1 44339U 19036A 24032.34574737 .00008515 00000-0 15668-2 0 9990 2 44339 24.0018 23.3745 0008707 275.3231 84.6269 14.63481380245159 SONATE 1 44400U 19038Q 24032.40072119 .00013353 00000-0 48988-3 0 9993 2 44400 97.7072 21.1364 0016173 224.4887 135.5054 15.27976635253156 BeeSat 9 1 44412U 19038AC 24032.47112357 .00060040 00000-0 10630-2 0 9999 2 44412 97.6873 28.7693 0009821 179.3061 180.8205 15.50042204253400 JAISAT-1 1 44419U 19038F 24032.78810437 .00062546 00000-0 11144-2 0 9998 2 44419 97.6858 30.2076 0009949 175.8018 184.3317 15.49850130253830 Taurus 1 1 44530U 19059C 24032.78416999 .00005480 00000-0 13390-2 0 9999 2 44530 98.5628 149.7427 0012864 113.2305 247.0246 14.52941816231941 Duchifat 3 1 44854U 19089C 24032.73053307 .00012292 00000-0 71283-3 0 9991 2 44854 36.9588 154.2687 0007996 51.0912 309.0546 15.11580456227518 OPS-SAT 1 44878U 19092F 24032.52371651 .00060876 00000-0 97357-3 0 9994 2 44878 97.4574 231.6796 0006327 23.4752 336.6789 15.52932026229138 TO-108 1 44881U 19093C 24032.79117761 .00001247 00000-0 15880-3 0 9996 2 44881 97.8414 112.1926 0015624 52.2173 308.0453 14.83228198222825 FloripaSat 1 1 44885U 19093G 24032.81906309 .00004287 00000-0 46910-3 0 9992 2 44885 97.8503 116.6120 0013889 49.1449 311.0969 14.88268953223077 RS-44 1 44909U 19096E 24032.45108380 .00000028 00000-0 68626-4 0 9993 2 44909 82.5214 195.6081 0217560 11.1933 349.3895 12.79726239191481 BY70-2 1 45857U 20042B 24032.84108224 .00039181 00000-0 27011-2 0 9992 2 45857 97.9187 120.6507 0007727 312.1716 47.8853 15.05679096193890 UPMSat 2 1 46276U 20061E 24032.13767522 .00012525 00000-0 44698-3 0 9997 2 46276 97.3171 100.3829 0000308 130.6534 229.4733 15.29007263189206 AmicalSat 1 46287U 20061R 24032.12498200 .00020286 00000-0 73272-3 0 9995 2 46287 97.3696 100.1756 0002377 30.9474 329.1906 15.28504988188574 SALSAT 1 46495U 20068K 24032.40739001 .00005869 00000-0 35720-3 0 9997 2 46495 97.8004 348.6766 0016375 63.7275 296.5634 15.10709159183645 CAPE 3 1 47309U 21002A 24032.60603050 .00430425 78121-4 14451-2 0 9997 2 47309 60.6579 235.0160 0014501 75.0523 285.2199 15.89569534169982 AO-109 1 47311U 21002C 24032.15409655 .00093971 00000-0 96896-3 0 9997 2 47311 60.6711 245.5488 0025733 72.1827 288.2084 15.63815909169748 ExoCube 2 1 47319U 21002L 24032.01880009 .00081443 00000-0 92267-3 0 9995 2 47319 60.6686 249.8871 0027054 72.3476 288.0580 15.61424506169623 UVSQ-SAT 1 47438U 21006AB 24032.14158300 .00026886 00000-0 78834-3 0 9991 2 47438 97.3508 92.0756 0007678 357.1573 2.9626 15.35132437167630 YUSAT 1 1 47439U 21006AC 24032.63469965 .00043206 00000-0 99794-3 0 9991 2 47439 97.3506 94.8232 0006637 347.0300 13.0775 15.42380179167856 SOMP 2b 1 47445U 21006AJ 24032.60632892 .00022865 00000-0 70288-3 0 9991 2 47445 97.3471 91.3363 0007814 2.7294 357.3990 15.33668028167659 IDEASSat 1 47458U 21006AX 24032.59985264 .00021479 00000-0 69048-3 0 9999 2 47458 97.3574 92.0805 0007461 4.3673 355.7633 15.32254054167614 CubeSX-Sirius-HSE 1 47951U 21022V 24032.86820208 .00014624 00000-0 68383-3 0 9996 2 47951 97.4758 292.0965 0014087 256.8941 103.0722 15.19787802157833 CubeSX-HSE 1 47952U 21022W 24032.83032772 .00013475 00000-0 62898-3 0 9993 2 47952 97.4758 292.1300 0013929 256.0524 103.9162 15.19870130157835 KSU-Cubesat 1 47954U 21022Y 24032.23499772 .00014722 00000-0 65285-3 0 9995 2 47954 97.4767 292.3650 0013063 254.5316 105.4478 15.21622901157514 GRBAlpha 1 47959U 21022AD 24032.86946467 .00014233 00000-0 66218-3 0 9991 2 47959 97.4760 292.2926 0013873 256.2745 103.6946 15.19972246156663 Orbicraft-Zorkiy 1 47960U 21022AE 24032.81246546 .00015600 00000-0 69782-3 0 9997 2 47960 97.4798 293.1030 0013227 253.7265 106.2516 15.21309678157382 STECCO 1 47962U 21022AG 24032.84180794 .00040130 00000-0 11752-2 0 9993 2 47962 97.4768 298.5622 0006661 215.6579 144.4220 15.35095111157077 MO-110 1 47964U 21022AJ 24032.31861613 .00040025 00000-0 11033-2 0 9998 2 47964 97.4786 299.1030 0007870 211.9929 148.0838 15.36982542157057 FEES 1 48082U 21022AL 24032.27232264 .00761483 00000-0 27336-2 0 9990 2 48082 97.4618 305.9069 0010016 127.2434 232.9752 15.86905923157205 TUBIN 1 48900U 21059X 24032.86961988 .00013147 00000-0 52753-3 0 9995 2 48900 97.6246 174.2681 0007364 197.6792 162.4190 15.25096344144110 IT-SPINS 1 49017U 21013G 24032.17134201 .00317479 00000-0 13104-2 0 9990 2 49017 51.5767 12.4918 0008287 92.1911 268.0040 15.84432314145361 LEDSAT 1 49069U 21073D 24032.64662132 .00011176 00000-0 52171-3 0 9997 2 49069 97.4554 105.1328 0022276 45.5514 314.7538 15.19776350135685 CUTE 1 49263U 21088D 24032.18060571 .00011765 00000-0 64207-3 0 9994 2 49263 97.5165 99.5395 0015500 190.7951 169.2951 15.14399951128878 TeikyoSat 4 1 49396U 21102B 24032.11406051 .00001795 00000-0 13593-3 0 9992 2 49396 97.4823 81.7702 0014737 30.5600 329.6482 15.03446598122157 Z-Sat 1 49399U 21102E 24032.81172540 .00004238 00000-0 28683-3 0 9996 2 49399 97.4539 83.7352 0021301 9.6031 350.5599 15.06855994122448 KOSEN 1 1 49402U 21102H 24032.10576314 .00005124 00000-0 32395-3 0 9990 2 49402 97.4458 84.0615 0019622 358.2005 1.9150 15.09303482122450 HO-113 1 50466U 21131B 24032.81836789 .00000745 00000-0 25391-3 0 9999 2 50466 98.5361 118.5389 0004578 161.4158 198.7198 14.39334212110388 Tevel-3 1 50988U 22002E 24032.83505678 .00042207 00000-0 10377-2 0 9994 2 50988 97.4016 105.0246 0005411 133.4712 226.6985 15.40505583113918 Tevel-8 1 50989U 22002F 24032.80062718 .00044952 00000-0 11084-2 0 9990 2 50989 97.4034 105.0726 0005358 132.0106 228.1598 15.40403082113901 Tevel-5 1 50998U 22002Q 24032.79975327 .00049800 00000-0 11516-2 0 9994 2 50998 97.4010 105.7667 0006061 126.6188 233.5617 15.42314875113968 Tevel-6 1 50999U 22002R 24032.79980171 .00048985 00000-0 11341-2 0 9997 2 50999 97.4008 105.7528 0006049 126.5840 233.5965 15.42283510113969 Tevel-1 1 51013U 22002AF 24032.78926329 .00043360 00000-0 10691-2 0 9998 2 51013 97.4008 104.8746 0005264 132.5749 227.5942 15.40413124113908 NO-116 1 51031U 22002AZ 24032.69621370 .02425539 74447-2 25756-2 0 9996 2 51031 97.3953 114.7732 0008714 301.0636 58.9792 16.12069230114468 IRIS-A 1 51044U 22002BN 24032.16178004 .00013635 00000-0 53728-3 0 9994 2 51044 97.4045 99.6632 0007518 148.1326 212.0369 15.25684851113492 Tevel-7 1 51062U 22002CG 24032.79632599 .00044562 00000-0 10965-2 0 9995 2 51062 97.4028 105.0387 0005400 132.3412 227.8293 15.40468137113901 Tevel-4 1 51063U 22002CH 24032.81593436 .00044732 00000-0 11063-2 0 9994 2 51063 97.4025 105.0047 0005342 131.9527 228.2175 15.40312420113906 Tevel-2 1 51069U 22002CP 24032.83522507 .00042529 00000-0 10449-2 0 9992 2 51069 97.4013 104.9915 0005392 133.4363 226.7333 15.40524866113910 SO-115 1 51080U 22002DA 24032.44155967 .00064851 00000-0 11911-2 0 9991 2 51080 97.4304 111.1286 0006103 158.5308 201.6200 15.49006258114101 SO-114 1 51081U 22002DB 24032.18113158 .00070886 00000-0 12679-2 0 9996 2 51081 97.4332 110.9377 0005999 157.7646 202.3866 15.49739048114071 OreSat0 1 52017U 22026K 24031.97771690 .00033955 00000-0 92530-3 0 9990 2 52017 97.5070 41.8794 0016524 3.1952 356.9395 15.37266494104536 Planetum 1 1 52738U 22057G 24032.27062306 .00022727 00000-0 77869-3 0 9998 2 52738 97.5520 154.9166 0005571 273.9019 86.1585 15.30198394 93565 Foresail-1 1 52766U 22057AL 24032.32969956 .00013459 00000-0 52694-3 0 9993 2 52766 97.5661 155.4563 0009748 251.0610 108.9571 15.25892663 93543 SNUGLITE 2 1 52899U 22065F 24032.37571696 .00001689 00000-0 36018-3 0 9998 2 52899 98.0961 176.4171 0007132 213.8658 146.2088 14.60153651 84295 IO-117 1 53106U 22080B 24030.91318460 -.00000003 00000-0 00000-0 0 9992 2 53106 70.1307 240.5663 0008315 134.1925 225.9418 6.42557763 36389 SelfieSat 1 53951U 22057BC 24032.81274638 .00036160 00000-0 10406-2 0 9998 2 53951 97.5552 157.3491 0006920 261.9528 98.0931 15.35666956 93743 FO-118 1 54684U 22167C 24032.86423764 .00019196 00000-0 84010-3 0 9998 2 54684 97.5857 175.5277 0011139 262.8300 97.1669 15.22038734 63518 SSS-2B 1 56184U 23054G 24032.78990731 .00022116 00000-0 72662-3 0 9991 2 56184 97.3863 290.5344 0007109 317.4347 42.6343 15.31550845 45205 CIRBE 1 56188U 23054L 24032.23655891 .00032632 00000-0 92812-3 0 9993 2 56188 97.3804 290.4675 0005263 313.2401 46.8403 15.36065411 45167 INSPIRE-Sat 7 1 56211U 23054AK 24032.22965977 .00029565 00000-0 80224-3 0 9993 2 56211 97.3830 291.3326 0008132 283.1812 76.8525 15.37533391 45217 RoseyCubesat 1 1 56212U 23054AL 24032.84204229 .00036200 00000-0 93854-3 0 9995 2 56212 97.3838 292.2124 0007890 278.6212 81.4139 15.38899037 45323 SO-120 1 56992U 23084BU 24032.58871948 .00019548 00000-0 91190-3 0 9999 2 56992 97.5187 151.5436 0015429 142.0443 218.1883 15.19788603 35382 MRC-100 1 56993U 23084BV 24032.74665127 .00022913 00000-0 10443-2 0 9999 2 56993 97.5197 151.8113 0014907 142.2897 217.9386 15.20562954 35425 UmKA 1 (RS40S) 1 57172U 23091G 24032.84174893 .00004548 00000-0 31866-3 0 9990 2 57172 97.6330 86.3242 0016503 223.1863 136.8070 15.05616065 32967 CubeBel-2 (EU11S) 1 57175U 23091K 24032.82271380 .00006808 00000-0 47430-3 0 9995 2 57175 97.6340 86.1847 0014863 236.0762 123.9052 15.05671267 32959 VERONIKA 1 58261U 23174F 24032.82675882 .00012571 00000-0 66383-3 0 9991 2 58261 97.4760 109.3884 0013440 3.5807 356.5520 15.15576359 13024 KAFASAT 1 58317U 23174BP 24032.80346718 .00014944 00000-0 74730-3 0 9995 2 58317 97.4711 109.5134 0011964 342.5569 17.5252 15.17470944 13034 ENSO 1 58470U 23185J 24032.85659543 .00011318 00000-0 55226-3 0 9996 2 58470 97.4462 101.4174 0014789 40.8199 319.4140 15.18360131 9422 EIRSAT-1 1 58472U 23185L 24032.85643089 .00012772 00000-0 62127-3 0 9999 2 58472 97.4456 101.4102 0014545 41.7874 318.4468 15.18441937 9424 SO-121 1 58567U 23174CY 24032.18547923 .00022184 00000-0 11116-2 0 9997 2 58567 97.4716 108.8228 0014911 352.2035 7.8964 15.17278528 12937 Clark sat-1 (AMBITIOUS) 1 58613U 98067WE 24032.82934814 .00100569 00000-0 12106-2 0 9996 2 58613 51.6368 269.2562 0009104 184.7804 175.3103 15.59967689 7127 BeliefSat-0 1 58695U 24001B 24030.04166667 .00169324 00000-0 78368-3 0 9995 2 58695 9.6637 223.9402 0007498 50.9194 26.8017 15.81416344 4559 /EX